RYR21F GMMN-LPPT

Flight info

Callsign RYR21F
Flight time 0h 53m
Altitude 36000
Route LAKAM UR722 AMSEL DCT VATZI
Aircraft B38M/M-SDE1FGHILORVWXY/HB1

Departure

Time 2026-05-07 17:37
Airport Mohammed V International Airport (GMMN)

Arrival

Time 2026-05-07 18:30
Airport Lisbon Humberto Delgado Airport (LPPT)
Time Latitude Longitude Altitude Speed Heading
2026-05-07 16:58 33.35265 -7.56458 660 ft 0 kts 164°
2026-05-07 17:00 33.37225 -7.58253 652 ft 0 kts 62°
2026-05-07 17:00 33.35948 -7.56848 652 ft 0 kts 343°
2026-05-07 17:20 33.35931 -7.56842 658 ft 3 kts 343°
2026-05-07 17:20 33.35914 -7.56836 658 ft 2 kts 343°
2026-05-07 17:20 33.35898 -7.56830 658 ft 2 kts 343°
2026-05-07 17:21 33.35881 -7.56825 658 ft 2 kts 343°
2026-05-07 17:21 33.35880 -7.56824 658 ft 0 kts 343°
2026-05-07 17:21 33.35882 -7.56828 658 ft 1 kts 302°
2026-05-07 17:21 33.35881 -7.56832 658 ft 0 kts 250°
2026-05-07 17:23 33.35880 -7.56834 658 ft 1 kts 250°
2026-05-07 17:23 33.35874 -7.56856 658 ft 5 kts 250°
2026-05-07 17:23 33.35859 -7.56910 658 ft 9 kts 253°
2026-05-07 17:24 33.35836 -7.57002 658 ft 14 kts 253°
2026-05-07 17:24 33.35805 -7.57133 658 ft 19 kts 254°
2026-05-07 17:24 33.35765 -7.57301 658 ft 23 kts 255°
2026-05-07 17:24 33.35716 -7.57507 658 ft 28 kts 253°
2026-05-07 17:25 33.35662 -7.57726 658 ft 20 kts 252°
2026-05-07 17:25 33.35622 -7.57892 658 ft 21 kts 255°
2026-05-07 17:25 33.35610 -7.57945 658 ft 0 kts 255°
2026-05-07 17:26 33.35607 -7.57960 658 ft 4 kts 255°
2026-05-07 17:26 33.35599 -7.57990 658 ft 6 kts 253°
2026-05-07 17:27 33.35584 -7.58049 658 ft 0 kts 252°
2026-05-07 17:27 33.35584 -7.58051 658 ft 2 kts 252°
2026-05-07 17:28 33.35575 -7.58082 658 ft 6 kts 253°
2026-05-07 17:28 33.35561 -7.58146 658 ft 0 kts 255°
2026-05-07 17:30 33.35558 -7.58155 658 ft 3 kts 255°
2026-05-07 17:30 33.35552 -7.58181 658 ft 0 kts 255°
2026-05-07 17:34 33.35548 -7.58199 658 ft 5 kts 255°
2026-05-07 17:35 33.35530 -7.58284 658 ft 16 kts 259°
2026-05-07 17:35 33.35555 -7.58370 657 ft 7 kts 322°
2026-05-07 17:35 33.35581 -7.58385 657 ft 0 kts 341°
2026-05-07 17:36 33.35588 -7.58388 657 ft 9 kts 341°
2026-05-07 17:36 33.35935 -7.58507 656 ft 92 kts 344°
2026-05-07 17:37 33.36780 -7.58795 659 ft 157 kts 346°
2026-05-07 17:37 33.37862 -7.59161 1406 ft 164 kts 347°
2026-05-07 17:37 33.39001 -7.59550 2154 ft 178 kts 346°
2026-05-07 17:37 33.40299 -7.59964 2701 ft 210 kts 345°
2026-05-07 17:38 33.41698 -7.60730 3437 ft 230 kts 326°
2026-05-07 17:38 33.43108 -7.61612 4474 ft 239 kts 344°
2026-05-07 17:38 33.44841 -7.61906 5270 ft 257 kts 352°
2026-05-07 17:38 33.46624 -7.62138 6263 ft 265 kts 353°
2026-05-07 17:39 33.48492 -7.62400 7160 ft 276 kts 350°
2026-05-07 17:39 33.50436 -7.62721 8024 ft 287 kts 350°
2026-05-07 17:39 33.52438 -7.63034 9014 ft 293 kts 350°
2026-05-07 17:39 33.54509 -7.63331 9816 ft 309 kts 350°
2026-05-07 17:40 33.56708 -7.63647 10351 ft 327 kts 349°
2026-05-07 17:40 33.58984 -7.64023 11247 ft 329 kts 348°
2026-05-07 17:40 33.61249 -7.64437 12249 ft 332 kts 347°
2026-05-07 17:40 33.63564 -7.64848 13021 ft 342 kts 348°
2026-05-07 17:41 33.65953 -7.65213 13801 ft 348 kts 349°
2026-05-07 17:41 33.68367 -7.65576 14559 ft 353 kts 348°
2026-05-07 17:41 33.70870 -7.65970 14802 ft 374 kts 348°
2026-05-07 17:41 33.73516 -7.66399 14847 ft 392 kts 348°
2026-05-07 17:42 33.76265 -7.66849 15179 ft 406 kts 348°
2026-05-07 17:42 33.79119 -7.67318 15390 ft 422 kts 348°
2026-05-07 17:42 33.82072 -7.67804 15675 ft 433 kts 348°
2026-05-07 17:42 33.85074 -7.68297 16197 ft 437 kts 348°
2026-05-07 17:43 33.88091 -7.68792 16738 ft 440 kts 348°
2026-05-07 17:43 33.91133 -7.69291 17251 ft 443 kts 348°
2026-05-07 17:43 33.94199 -7.69795 17768 ft 445 kts 348°
2026-05-07 17:43 33.97274 -7.70300 18259 ft 448 kts 348°
2026-05-07 17:44 34.00376 -7.70810 18684 ft 451 kts 348°
2026-05-07 17:44 34.03492 -7.71323 19094 ft 454 kts 348°
2026-05-07 17:44 34.06635 -7.71840 19498 ft 457 kts 347°
2026-05-07 17:44 34.09791 -7.72360 19911 ft 459 kts 347°
2026-05-07 17:45 34.12969 -7.72884 20310 ft 462 kts 347°
2026-05-07 17:45 34.16166 -7.73412 20724 ft 465 kts 347°
2026-05-07 17:45 34.19399 -7.73828 21114 ft 472 kts 353°
2026-05-07 17:45 34.22688 -7.74010 21530 ft 474 kts 352°
2026-05-07 17:46 34.25950 -7.74219 21942 ft 477 kts 352°
2026-05-07 17:46 34.29321 -7.74452 22356 ft 480 kts 352°
2026-05-07 17:46 34.32666 -7.74691 22761 ft 483 kts 352°
2026-05-07 17:46 34.36037 -7.74934 23164 ft 486 kts 351°
2026-05-07 17:47 34.39425 -7.75178 23562 ft 489 kts 351°
2026-05-07 17:47 34.42834 -7.75424 23913 ft 492 kts 351°
2026-05-07 17:47 34.46262 -7.75671 24299 ft 494 kts 351°
2026-05-07 17:47 34.49653 -7.75917 24698 ft 496 kts 351°
2026-05-07 17:48 34.53105 -7.76166 25111 ft 498 kts 351°
2026-05-07 17:48 34.56578 -7.76418 25491 ft 501 kts 351°
2026-05-07 17:48 34.60060 -7.76671 25869 ft 503 kts 351°
2026-05-07 17:48 34.63563 -7.76925 26240 ft 505 kts 351°
2026-05-07 17:49 34.67075 -7.77180 26652 ft 505 kts 351°
2026-05-07 17:49 34.70579 -7.77435 27138 ft 504 kts 351°
2026-05-07 17:49 34.74071 -7.77698 27642 ft 502 kts 350°
2026-05-07 17:49 34.77545 -7.77992 28199 ft 499 kts 350°
2026-05-07 17:50 34.81001 -7.78281 28736 ft 497 kts 350°
2026-05-07 17:50 34.84444 -7.78567 29267 ft 495 kts 350°
2026-05-07 17:50 34.87880 -7.78853 29813 ft 493 kts 349°
2026-05-07 17:50 34.91296 -7.79137 30298 ft 492 kts 349°
2026-05-07 17:51 34.94703 -7.79421 30728 ft 491 kts 349°
2026-05-07 17:51 34.98108 -7.79704 31153 ft 490 kts 349°
2026-05-07 17:51 35.01504 -7.79987 31605 ft 489 kts 349°
2026-05-07 17:51 35.04893 -7.80271 32011 ft 488 kts 349°
2026-05-07 17:52 35.08282 -7.80554 32440 ft 487 kts 349°
2026-05-07 17:52 35.11661 -7.80837 32866 ft 486 kts 349°
2026-05-07 17:52 35.15032 -7.81119 33283 ft 485 kts 349°
2026-05-07 17:52 35.17306 -7.81309 33569 ft 485 kts 349°
2026-05-07 17:53 35.20669 -7.81591 33985 ft 484 kts 349°
2026-05-07 17:53 35.24027 -7.81873 34348 ft 483 kts 349°
2026-05-07 17:53 35.27378 -7.82154 34730 ft 482 kts 348°
2026-05-07 17:53 35.30720 -7.82435 35066 ft 482 kts 348°
2026-05-07 17:54 35.34014 -7.82712 35418 ft 480 kts 348°
2026-05-07 17:54 35.37345 -7.82992 35766 ft 479 kts 348°
2026-05-07 17:54 35.40719 -7.83279 35965 ft 480 kts 348°
2026-05-07 17:54 35.44046 -7.83579 35949 ft 478 kts 348°
2026-05-07 17:55 35.50658 -7.84174 35970 ft 477 kts 348°
2026-05-07 17:55 35.57282 -7.84770 35952 ft 477 kts 348°
2026-05-07 17:56 35.63911 -7.85367 35947 ft 478 kts 348°
2026-05-07 17:56 35.70502 -7.85962 35948 ft 478 kts 348°
2026-05-07 17:57 35.76060 -7.86464 35946 ft 478 kts 348°
2026-05-07 17:57 35.83769 -7.87162 35944 ft 478 kts 348°
2026-05-07 17:58 35.90403 -7.87764 35944 ft 478 kts 348°
2026-05-07 17:58 35.96928 -7.88792 35917 ft 459 kts 331°
2026-05-07 17:59 36.02696 -7.91958 35897 ft 454 kts 327°
2026-05-07 17:59 36.08423 -7.95252 35953 ft 454 kts 326°
2026-05-07 18:00 36.14133 -7.98606 35948 ft 454 kts 326°
2026-05-07 18:00 36.19838 -8.01972 35939 ft 454 kts 326°
2026-05-07 18:01 36.25539 -8.05340 35956 ft 454 kts 326°
2026-05-07 18:01 36.31235 -8.08713 35940 ft 454 kts 326°
2026-05-07 18:02 36.39782 -8.13782 35938 ft 454 kts 326°
2026-05-07 18:03 36.45482 -8.17170 35936 ft 454 kts 326°
2026-05-07 18:03 36.51173 -8.20558 35930 ft 453 kts 326°
2026-05-07 18:04 36.56858 -8.23948 35926 ft 453 kts 326°
2026-05-07 18:04 36.62541 -8.27343 35937 ft 453 kts 325°
2026-05-07 18:05 36.68188 -8.30721 35934 ft 453 kts 325°
2026-05-07 18:05 36.73868 -8.34125 35931 ft 453 kts 326°
2026-05-07 18:06 36.79564 -8.37544 35937 ft 456 kts 325°
2026-05-07 18:06 36.85281 -8.40981 35931 ft 456 kts 325°
2026-05-07 18:07 36.90998 -8.44424 35927 ft 456 kts 325°
2026-05-07 18:07 36.96716 -8.47874 35935 ft 456 kts 325°
2026-05-07 18:08 37.02428 -8.51326 35935 ft 456 kts 325°
2026-05-07 18:08 37.08139 -8.54782 35936 ft 456 kts 325°
2026-05-07 18:09 37.13852 -8.58246 35939 ft 456 kts 325°
2026-05-07 18:09 37.19566 -8.61717 35942 ft 457 kts 325°
2026-05-07 18:10 37.25286 -8.65197 35941 ft 457 kts 325°
2026-05-07 18:10 37.31007 -8.68683 35939 ft 457 kts 325°
2026-05-07 18:11 37.36686 -8.72149 35950 ft 448 kts 325°
2026-05-07 18:11 37.42233 -8.75541 35856 ft 442 kts 325°
2026-05-07 18:11 37.45003 -8.77237 35090 ft 445 kts 325°
2026-05-07 18:12 37.47795 -8.78946 34321 ft 448 kts 325°
2026-05-07 18:12 37.50606 -8.80669 33523 ft 451 kts 326°
2026-05-07 18:12 37.53436 -8.82405 32669 ft 454 kts 326°
2026-05-07 18:12 37.56282 -8.84152 31819 ft 456 kts 327°
2026-05-07 18:13 37.59149 -8.85905 30977 ft 460 kts 329°
2026-05-07 18:13 37.62206 -8.87253 30175 ft 469 kts 338°
2026-05-07 18:13 37.65329 -8.88472 29257 ft 470 kts 337°
2026-05-07 18:13 37.68451 -8.89729 28290 ft 472 kts 337°
2026-05-07 18:14 37.71585 -8.91007 27304 ft 475 kts 337°
2026-05-07 18:14 37.74737 -8.92298 26318 ft 478 kts 338°
2026-05-07 18:14 37.77907 -8.93600 25389 ft 480 kts 338°
2026-05-07 18:14 37.81058 -8.94894 24872 ft 473 kts 338°
2026-05-07 18:15 37.84166 -8.96173 24309 ft 467 kts 338°
2026-05-07 18:15 37.87237 -8.97438 23818 ft 460 kts 338°
2026-05-07 18:15 37.90259 -8.98683 23319 ft 454 kts 338°
2026-05-07 18:15 37.93232 -8.99909 22757 ft 444 kts 338°
2026-05-07 18:16 37.96140 -9.01110 22055 ft 435 kts 338°
2026-05-07 18:16 37.98990 -9.02287 21337 ft 428 kts 338°
2026-05-07 18:16 38.01794 -9.03466 20643 ft 421 kts 338°
2026-05-07 18:16 38.04548 -9.04627 19873 ft 413 kts 338°
2026-05-07 18:17 38.07221 -9.05753 19759 ft 385 kts 338°
2026-05-07 18:17 38.09667 -9.06783 19838 ft 361 kts 337°
2026-05-07 18:17 38.12014 -9.07776 19408 ft 352 kts 337°
2026-05-07 18:17 38.14337 -9.08723 18820 ft 351 kts 342°
2026-05-07 18:18 38.16738 -9.08929 18281 ft 353 kts
2026-05-07 18:18 38.19061 -9.07960 17629 ft 353 kts 30°
2026-05-07 18:18 38.20925 -9.05936 16994 ft 347 kts 51°
2026-05-07 18:18 38.22457 -9.03635 16363 ft 344 kts 50°
2026-05-07 18:19 38.24023 -9.01357 15821 ft 340 kts 50°
2026-05-07 18:19 38.25572 -8.99106 15256 ft 336 kts 50°
2026-05-07 18:19 38.27100 -8.96886 14731 ft 332 kts 50°
2026-05-07 18:19 38.28617 -8.94697 14203 ft 328 kts 48°
2026-05-07 18:20 38.30447 -8.93015 13669 ft 325 kts 22°
2026-05-07 18:20 38.32637 -8.92497 13058 ft 321 kts 355°
2026-05-07 18:20 38.34761 -8.93197 12425 ft 314 kts 330°
2026-05-07 18:20 38.36468 -8.94854 11832 ft 307 kts 313°
2026-05-07 18:21 38.38002 -8.96746 11216 ft 306 kts 310°
2026-05-07 18:21 38.39076 -8.99006 10668 ft 295 kts 283°
2026-05-07 18:21 38.39231 -9.01544 10094 ft 285 kts 257°
2026-05-07 18:21 38.38760 -9.03975 9473 ft 283 kts 257°
2026-05-07 18:22 38.38957 -9.06464 8931 ft 287 kts 290°
2026-05-07 18:22 38.39654 -9.07898 8518 ft 292 kts 311°
2026-05-07 18:22 38.41988 -9.09619 7787 ft 291 kts 335°
2026-05-07 18:22 38.43784 -9.10743 7312 ft 285 kts 329°
2026-05-07 18:23 38.45495 -9.11977 6833 ft 280 kts 326°
2026-05-07 18:23 38.47150 -9.13268 6316 ft 278 kts 324°
2026-05-07 18:23 38.48760 -9.14588 5827 ft 273 kts 323°
2026-05-07 18:23 38.50332 -9.15918 5374 ft 268 kts 322°
2026-05-07 18:24 38.51869 -9.17235 4914 ft 264 kts 322°
2026-05-07 18:24 38.53374 -9.18540 4450 ft 259 kts 324°
2026-05-07 18:24 38.54857 -9.19837 4003 ft 257 kts 323°
2026-05-07 18:24 38.56282 -9.21085 4016 ft 245 kts 322°
2026-05-07 18:25 38.57644 -9.22279 4057 ft 228 kts 323°
2026-05-07 18:25 38.59083 -9.22980 3975 ft 218 kts 349°
2026-05-07 18:25 38.60534 -9.22896 3891 ft 202 kts
2026-05-07 18:25 38.61836 -9.22336 3629 ft 195 kts 19°
2026-05-07 18:26 38.63065 -9.21656 3343 ft 186 kts 19°
2026-05-07 18:26 38.64196 -9.21036 3077 ft 171 kts 17°
2026-05-07 18:26 38.65282 -9.20456 2863 ft 167 kts 18°
2026-05-07 18:26 38.66349 -9.19890 2608 ft 165 kts 19°
2026-05-07 18:27 38.67404 -9.19322 2367 ft 164 kts 17°
2026-05-07 18:27 38.68444 -9.18770 2121 ft 157 kts 17°
2026-05-07 18:27 38.69425 -9.18246 1901 ft 150 kts 16°
2026-05-07 18:27 38.70060 -9.17907 1778 ft 148 kts 15°
2026-05-07 18:28 38.71292 -9.17251 1502 ft 140 kts 16°
2026-05-07 18:28 38.72190 -9.16766 1326 ft 141 kts 15°
2026-05-07 18:28 38.73096 -9.16286 1132 ft 142 kts 15°
2026-05-07 18:28 38.73996 -9.15802 953 ft 138 kts 18°
2026-05-07 18:29 38.74872 -9.15334 733 ft 136 kts 17°
2026-05-07 18:29 38.75747 -9.14867 610 ft 138 kts 18°
2026-05-07 18:29 38.76625 -9.14387 393 ft 135 kts 16°
2026-05-07 18:29 38.77422 -9.13980 352 ft 107 kts 22°
2026-05-07 18:30 38.78000 -9.13665 349 ft 73 kts 22°
2026-05-07 18:30 38.78314 -9.13422 353 ft 32 kts 41°
2026-05-07 18:30 38.78373 -9.13312 354 ft 2 kts 96°
2026-05-07 18:30 38.78367 -9.13287 355 ft 4 kts 116°
2026-05-07 18:31 38.78345 -9.13269 354 ft 4 kts 166°
2026-05-07 18:31 38.78307 -9.13275 353 ft 7 kts 200°
2026-05-07 18:31 38.78253 -9.13299 356 ft 10 kts 199°
2026-05-07 18:31 38.78181 -9.13335 355 ft 13 kts 202°
2026-05-07 18:32 38.78091 -9.13382 354 ft 15 kts 204°
2026-05-07 18:32 38.77985 -9.13442 352 ft 18 kts 203°
2026-05-07 18:32 38.77861 -9.13509 351 ft 21 kts 202°
2026-05-07 18:32 38.77724 -9.13582 352 ft 17 kts 202°
2026-05-07 18:33 38.77604 -9.13586 352 ft 19 kts 168°
2026-05-07 18:33 38.77500 -9.13559 353 ft 15 kts 168°
2026-05-07 18:33 38.77392 -9.13528 354 ft 17 kts 167°
2026-05-07 18:33 38.77362 -9.13519 349 ft 0 kts 167°
2026-05-07 18:36 38.77349 -9.13516 349 ft 4 kts 167°
2026-05-07 18:36 38.77313 -9.13505 349 ft 7 kts 168°
2026-05-07 18:37 38.77254 -9.13490 354 ft 10 kts 168°
2026-05-07 18:37 38.77171 -9.13469 349 ft 14 kts 168°
2026-05-07 18:37 38.77066 -9.13440 349 ft 17 kts 168°
2026-05-07 18:37 38.76939 -9.13406 349 ft 21 kts 168°
2026-05-07 18:38 38.76802 -9.13369 349 ft 16 kts 173°
2026-05-07 18:38 38.76696 -9.13429 355 ft 18 kts 215°
2026-05-07 18:38 38.76641 -9.13572 353 ft 19 kts 256°
2026-05-07 18:38 38.76583 -9.13661 352 ft 13 kts 179°
2026-05-07 18:39 38.76485 -9.13640 351 ft 9 kts 168°
2026-05-07 18:39 38.76483 -9.13639 351 ft 0 kts 168°